TimeAST,TemperatureF,Dew PointF,Humidity,Sea Level PressureIn,VisibilityMPH,Wind Direction,Wind SpeedMPH,Gust SpeedMPH,PrecipitationIn,Events,Conditions,WindDirDegrees,DateUTC
12:20 AM,-7.6,-18.4,59,29.30,6.2,Variable,4.6,-,N/A,,Unknown,0,2014-02-10 04:20:00
12:50 AM,-0.4,-14.8,51,29.30,6.2,NNW,8.1,-,N/A,,Unknown,340,2014-02-10 04:50:00
1:20 AM,1.4,-13.0,51,29.30,6.2,North,3.5,-,N/A,,Unknown,360,2014-02-10 05:20:00
1:50 AM,-4.0,-18.4,50,29.30,6.2,Variable,1.2,-,N/A,,Unknown,0,2014-02-10 05:50:00
2:20 AM,-0.4,-13.0,55,29.27,6.2,NNW,1.2,-,N/A,,Unknown,340,2014-02-10 06:20:00
2:50 AM,-0.4,-13.0,55,29.27,6.2,NNW,3.5,-,N/A,,Unknown,330,2014-02-10 06:50:00
3:20 AM,1.4,-11.2,56,29.27,6.2,North,1.2,-,N/A,,Unknown,360,2014-02-10 07:20:00
3:50 AM,-0.4,-13.0,55,29.27,6.2,North,2.3,-,N/A,,Unknown,360,2014-02-10 07:50:00
4:20 AM,-4.0,-14.8,60,29.27,6.2,North,1.2,-,N/A,,Unknown,360,2014-02-10 08:20:00
4:50 AM,-0.4,-13.0,55,29.27,6.2,North,1.2,-,N/A,,Unknown,360,2014-02-10 08:50:00
5:20 AM,-4.0,-16.6,55,29.27,6.2,North,1.2,-,N/A,,Unknown,360,2014-02-10 09:20:00
5:50 AM,-5.8,-16.6,60,29.27,6.2,North,2.3,-,N/A,,Unknown,360,2014-02-10 09:50:00
6:20 AM,-4.0,-14.8,60,29.27,6.2,NNW,4.6,-,N/A,,Unknown,330,2014-02-10 10:20:00
6:50 AM,-5.8,-14.8,65,29.27,6.2,South,2.3,-,N/A,,Unknown,180,2014-02-10 10:50:00
7:20 AM,-5.8,-14.8,65,29.27,6.2,South,2.3,-,N/A,,Partly Cloudy,170,2014-02-10 11:20:00
7:50 AM,-0.4,-13.0,55,29.27,6.2,SSE,2.3,-,N/A,,Partly Cloudy,160,2014-02-10 11:50:00
8:50 AM,1.4,-13.0,51,29.27,6.2,SW,1.2,-,N/A,,Partly Cloudy,220,2014-02-10 12:50:00
9:50 AM,-7.6,-16.6,65,29.27,6.2,SE,2.3,-,N/A,,Partly Cloudy,130,2014-02-10 13:50:00
10:50 AM,-7.6,-16.6,65,29.27,6.2,NW,3.5,-,N/A,,Partly Cloudy,320,2014-02-10 14:50:00
11:50 AM,-7.6,-16.6,65,29.27,6.2,NW,3.5,-,N/A,,Partly Cloudy,320,2014-02-10 15:50:00
12:50 PM,-7.6,-18.4,59,29.24,6.2,NNE,1.2,-,N/A,,Partly Cloudy,20,2014-02-10 16:50:00
1:50 PM,-5.8,-14.8,65,29.24,6.2,NNE,1.2,-,N/A,,Partly Cloudy,20,2014-02-10 17:50:00
2:50 PM,-4.0,-14.8,60,29.24,6.2,NE,1.2,-,N/A,,Partly Cloudy,40,2014-02-10 18:50:00
3:50 PM,-9.4,-18.4,65,29.24,6.2,Variable,1.2,-,N/A,,Unknown,0,2014-02-10 19:50:00
4:20 PM,-7.6,-16.6,65,29.24,6.2,SE,3.5,-,N/A,,Unknown,140,2014-02-10 20:20:00
4:50 PM,-5.8,-14.8,65,29.24,6.2,Variable,1.2,-,N/A,,Unknown,0,2014-02-10 20:50:00
5:20 PM,-4.0,-14.8,60,29.27,6.2,SSE,2.3,-,N/A,,Unknown,150,2014-02-10 21:20:00
5:50 PM,-11.2,-20.2,64,29.27,6.2,SE,3.5,-,N/A,,Unknown,140,2014-02-10 21:50:00
6:20 PM,-11.2,-20.2,64,29.27,6.2,Calm,Calm,-,N/A,,Unknown,0,2014-02-10 22:20:00
6:50 PM,-9.4,-16.6,71,29.27,6.2,SE,1.2,-,N/A,,Unknown,140,2014-02-10 22:50:00
7:20 PM,-7.6,-16.6,65,29.27,6.2,SE,1.2,-,N/A,,Unknown,140,2014-02-10 23:20:00
7:50 PM,-5.8,-16.6,60,29.27,6.2,SE,1.2,-,N/A,,Unknown,140,2014-02-10 23:50:00
8:20 PM,-7.6,-16.6,65,29.27,6.2,Variable,1.2,-,N/A,,Unknown,0,2014-02-11 00:20:00
8:50 PM,-7.6,-16.6,65,29.27,6.2,Variable,1.2,-,N/A,,Unknown,0,2014-02-11 00:50:00
9:20 PM,-7.6,-16.6,65,29.27,6.2,SE,2.3,-,N/A,,Unknown,140,2014-02-11 01:20:00
9:50 PM,-9.4,-16.6,71,29.27,6.2,SE,2.3,-,N/A,,Unknown,140,2014-02-11 01:50:00
10:20 PM,-9.4,-16.6,71,29.27,6.2,SE,2.3,-,N/A,,Unknown,140,2014-02-11 02:20:00
10:50 PM,-11.2,-20.2,64,29.27,6.2,NNW,4.6,-,N/A,,Unknown,340,2014-02-11 02:50:00
11:20 PM,-9.4,-18.4,65,29.27,6.2,Variable,1.2,-,N/A,,Unknown,0,2014-02-11 03:20:00
11:50 PM,-9.4,-18.4,65,29.27,6.2,SE,2.3,-,N/A,,Unknown,140,2014-02-11 03:50:00